GW1765 Weather Reports


time (UTC)temp
C
wind
direction
speed
KPH
gust
KPH
rain 1hr
cm
rain 24hr
cm
rain mn
cm
humidity
%
barometer
mb
20260831061042 11 238 25.7 38.6 0.00 0.36 0.33 81 1008.1
20260831060016 11 215 29.0 45.1 0.00 0.36 0.33 80 1008.0
20260831055114 11 197 30.6 48.3 0.00 0.36 0.33 80 1007.8
20260831054109 11 228 22.5 38.6 0.00 0.36 0.33 80 1007.6
20260831053108 11 218 32.2 46.7 0.00 0.36 0.33 81 1007.7
20260831052102 11 210 35.4 51.5 0.00 0.36 0.33 83 1007.7
20260831051059 11 234 25.7 43.5 0.03 0.36 0.33 84 1007.7
20260831050058 11 207 29.0 38.6 0.03 0.36 0.33 84 1007.6
20260831045052 12 190 30.6 38.6 0.03 0.36 0.33 83 1007.6
20260831044048 12 208 27.4 37.0 0.03 0.36 0.33 81 1007.7
20260831043045 12 252 25.7 37.0 0.03 0.48 0.33 80 1007.4
20260831042103 12 215 24.1 45.1 0.03 0.48 0.33 77 1007.3
20260831041058 13 240 20.9 33.8 0.03 0.48 0.30 76 1007.2
20260831040034 12 228 22.5 33.8 0.03 0.48 0.30 76 1007.2
20260831035051 13 242 25.7 41.8 0.03 0.48 0.30 78 1007.4
20260831034027 13 214 32.2 48.3 0.03 0.48 0.30 79 1007.4
20260831033024 12 224 29.0 43.5 0.03 0.48 0.30 77 1007.3
20260831032021 12 229 22.5 41.8 0.03 0.48 0.30 75 1007.0
20260831031019 13 228 22.5 40.2 0.00 0.46 0.28 75 1006.7
20260831030113 13 259 20.9 33.8 0.00 0.46 0.28 75 1006.9
20260831025131 13 235 17.7 32.2 0.00 0.46 0.28 75 1006.9
20260831024108 13 228 27.4 41.8 0.00 0.46 0.28 74 1006.9
20260831023104 13 242 27.4 41.8 0.00 0.46 0.28 73 1006.8
20260831022100 14 244 24.1 40.2 0.00 0.46 0.28 73 1006.8
20260831021117 15 233 19.3 32.2 0.00 0.46 0.28 72 1006.8
20260831020052 15 234 20.9 43.5 0.00 0.46 0.28 75 1007.0
20260831015049 13 255 17.7 43.5 0.00 0.46 0.28 76 1006.8
20260831014127 13 243 16.1 29.0 0.00 0.46 0.28 74 1007.0
20260831013043 13 240 20.9 37.0 0.00 0.46 0.28 72 1007.0
20260831012039 14 213 20.9 43.5 0.00 0.46 0.28 73 1007.1
20260831011035 14 249 24.1 41.8 0.00 0.46 0.28 74 1007.1
20260831010032 13 247 22.5 41.8 0.00 0.46 0.28 73 1007.3
20260831005029 14 237 24.1 35.4 0.00 0.46 0.28 72 1007.4
20260831004027 15 249 20.9 41.8 0.00 0.46 0.28 73 1007.6
20260831003021 15 245 22.5 37.0 0.00 0.46 0.28 75 1007.7
20260831002018 14 270 20.9 35.4 0.03 0.48 0.28 73 1007.9
20260831001158 15 267 24.1 33.8 0.03 0.48 0.28 75 1007.9
20260831000111 15 225 12.9 32.2 0.03 0.48 0.28 81 1008.1
20260830235107 15 278 19.3 37.0 0.03 0.48 0.28 81 1008.0
20260830234107 13 238 17.7 29.0 0.03 0.48 0.28 80 1008.1
20260830233103 13 230 20.9 38.6 0.03 0.48 0.28 76 1008.0
20260830232058 13 215 20.9 33.8 0.00 0.46 0.23 77 1008.0
20260830231053 14 242 24.1 33.8 0.05 0.46 0.23 79 1008.1
20260830230051 14 222 17.7 33.8 0.05 0.46 0.23 81 1008.3
20260830225108 13 225 16.1 20.9 0.05 0.46 0.23 82 1008.3
20260830224044 13 231 16.1 27.4 0.05 0.46 0.23 82 1008.4
20260830223040 12 239 19.3 37.0 0.05 0.46 0.23 80 1008.4
20260830222117 12 225 24.1 40.2 0.05 0.46 0.23 76 1008.4
20260830221034 13 225 22.5 40.2 0.00 0.38 0.18 79 1008.3
20260830220032 13 237 17.7 32.2 0.00 0.38 0.18 80 1008.1
20260830215028 13 235 19.3 27.4 0.00 0.38 0.18 83 1008.3
20260830214022 12 223 19.3 32.2 0.00 0.38 0.18 84 1008.4
20260830213019 12 215 17.7 29.0 0.00 0.38 0.18 86 1008.4
20260830212035 12 232 17.7 25.7 0.00 0.38 0.18 88 1008.4
20260830211112 12 229 19.3 27.4 0.00 0.38 0.18 89 1008.3
20260830210109 12 234 19.3 30.6 0.00 0.38 0.18 92 1008.4
20260830205106 12 229 17.7 38.6 0.10 0.38 0.18 92 1008.4
20260830204101 12 258 9.7 27.4 0.10 0.38 0.18 90 1008.4
20260830203143 11 240 9.7 17.7 0.10 0.38 0.18 91 1008.4
20260830202115 11 232 17.7 25.7 0.13 0.38 0.18 90 1008.6
20260830201052 11 241 17.7 30.6 0.13 0.38 0.18 90 1008.7
20260830200048 11 257 19.3 33.8 0.13 0.38 0.18 89 1008.6
20260830195046 11 227 12.9 27.4 0.03 0.30 0.10 88 1008.4
20260830194041 11 258 9.7 25.7 0.03 0.30 0.10 88 1008.3
20260830193039 11 241 11.3 24.1 0.03 0.30 0.10 88 1008.0
20260830192034 11 259 11.3 27.4 0.00 0.28 0.05 88 1008.0
20260830191031 11 261 9.7 17.7 0.03 0.28 0.05 88 1007.8
20260830190026 11 265 9.7 17.7 0.03 0.28 0.05 88 1007.7
20260830185023 10 231 12.9 24.1 0.03 0.28 0.05 87 1007.9
20260830184019 10 272 12.9 24.1 0.03 0.28 0.05 87 1008.1
20260830183018 10 230 16.1 25.7 0.03 0.28 0.05 86 1008.1
20260830182115 10 239 12.9 22.5 0.03 0.28 0.05 87 1007.9
20260830181109 10 235 14.5 22.5 0.00 0.23 0.03 87 1007.8
20260830180106 10 240 14.5 27.4 0.00 0.23 0.03 87 1007.9
20260830175102 10 250 12.9 27.4 0.00 0.23 0.03 87 1007.8
20260830174059 10 221 12.9 19.3 0.00 0.23 0.03 87 1007.9
20260830173117 10 225 12.9 24.1 0.00 0.23 0.03 88 1007.8
20260830172053 10 233 14.5 22.5 0.00 0.23 0.03 88 1007.7
20260830171049 10 231 12.9 20.9 0.00 0.23 0.03 88 1007.7
20260830170107 10 244 16.1 25.7 0.00 0.23 0.03 88 1007.6
20260830165101 10 243 12.9 24.1 0.00 0.23 0.03 87 1007.5
20260830164039 10 237 14.5 24.1 0.00 0.23 0.03 87 1007.3
20260830163035 10 231 11.3 20.9 0.00 0.23 0.03 87 1007.3
20260830162031 10 236 9.7 17.7 0.00 0.23 0.03 86 1007.3
20260830161027 10 224 9.7 16.1 0.00 0.23 0.03 86 1007.2
20260830160026 10 225 12.9 22.5 0.00 0.23 0.03 86 1007.3
20260830155021 10 237 14.5 24.1 0.03 0.23 0.03 85 1007.4
20260830154017 10 225 17.7 27.4 0.03 0.23 0.03 85 1007.6
20260830153113 10 222 12.9 20.9 0.03 0.23 0.03 85 1007.6
20260830152135 10 213 16.1 25.7 0.03 0.23 0.03 86 1007.6
20260830151149 10 229 12.9 22.5 0.03 0.23 0.03 86 1007.7
20260830145059 10 197 16.1 24.1 0.00 0.20 0.00 87 1007.8
20260830144058 10 216 17.7 24.1 0.00 0.20 0.00 88 1007.9
20260830143055 10 241 16.1 25.7 0.00 0.20 0.00 89 1008.1
20260830142050 10 225 14.5 22.5 0.00 0.20 0.00 90 1008.1
20260830141048 10 246 16.1 27.4 0.00 0.20 0.00 90 1008.1
20260830140104 10 236 14.5 27.4 0.00 0.20 0.00 90 1008.1
20260830135040 10 226 14.5 24.1 0.00 0.20 0.00 90 1008.0
20260830134055 10 204 17.7 24.1 0.00 0.20 0.00 90 1008.0
20260830133031 10 198 16.1 22.5 0.00 0.20 0.00 91 1008.0
20260830132028 10 225 12.9 24.1 0.00 0.20 0.00 91 1008.0
20260830131024 10 225 19.3 32.2 0.00 0.20 0.00 91 1007.8
20260830130020 10 231 14.5 32.2 0.00 0.20 0.00 91 1007.7
20260830125017 10 212 16.1 24.1 0.00 0.20 0.00 91 1007.7
20260830124114 10 224 17.7 24.1 0.00 0.20 0.00 91 1007.6
20260830123110 10 201 17.7 22.5 0.00 0.20 0.00 91 1007.5
20260830122106 10 221 22.5 30.6 0.00 0.20 0.00 91 1007.5
20260830121103 11 209 22.5 29.0 0.00 0.20 0.00 92 1007.5
20260830120101 11 201 19.3 27.4 0.00 0.20 0.00 92 1007.5
20260830115056 11 236 20.9 27.4 0.00 0.20 0.20 93 1007.5
20260830114054 11 225 22.5 32.2 0.00 0.20 0.20 93 1007.5
20260830113052 11 216 19.3 30.6 0.00 0.20 0.20 93 1007.5
20260830112048 10 248 16.1 25.7 0.00 0.20 0.20 94 1007.4
20260830111045 10 229 12.9 20.9 0.00 0.20 0.20 94 1007.5
20260830110040 10 221 14.5 22.5 0.00 0.20 0.20 94 1007.3
20260830105036 10 232 16.1 24.1 0.00 0.20 0.20 94 1007.3
20260830104032 10 239 16.1 24.1 0.00 0.20 0.20 94 1007.3
20260830103031 10 234 11.3 17.7 0.00 0.20 0.20 95 1007.2
20260830102027 10 191 17.7 27.4 0.00 0.20 0.20 95 1007.1
20260830101044 11 211 27.4 43.5 0.00 0.20 0.20 95 1006.9
20260830100018 11 180 20.9 33.8 0.00 0.20 0.20 95 1007.0
20260830095116 11 208 24.1 32.2 0.00 0.20 0.20 95 1007.1
20260830094111 11 207 22.5 30.6 0.00 0.20 0.20 95 1007.0
20260830093110 11 228 19.3 27.4 0.00 0.20 0.20 95 1006.9
20260830092125 11 216 22.5 32.2 0.00 0.20 0.20 95 1007.1
20260830091103 11 188 19.3 27.4 0.00 0.20 0.20 95 1007.0
20260830090057 11 211 17.7 25.7 0.00 0.20 0.20 95 1006.9
20260830085119 11 217 19.3 25.7 0.00 0.20 0.20 95 1006.9
20260830084051 11 223 20.9 30.6 0.00 0.20 0.20 95 1006.9
20260830083047 11 204 24.1 35.4 0.00 0.20 0.20 95 1006.8
20260830082044 11 225 19.3 33.8 0.00 0.20 0.20 94 1006.7
20260830081040 11 225 17.7 37.0 0.00 0.20 0.20 94 1006.5
20260830080118 11 215 11.3 19.3 0.00 0.20 0.20 94 1006.3
20260830075035 11 228 17.7 30.6 0.00 0.20 0.20 94 1006.4
20260830074051 11 219 16.1 24.1 0.03 0.20 0.20 94 1006.4
20260830073026 11 212 16.1 27.4 0.03 0.20 0.20 94 1006.4
20260830072023 11 213 14.5 20.9 0.03 0.20 0.20 94 1006.3
20260830071020 11 202 16.1 27.4 0.03 0.20 0.20 94 1006.2
20260830070018 11 226 20.9 33.8 0.03 0.20 0.20 94 1006.1
20260830065114 11 236 19.3 32.2 0.03 0.20 0.20 94 1005.9
20260830064110 11 199 19.3 33.8 0.00 0.18 0.18 93 1005.8
20260830063107 11 222 16.1 22.5 0.00 0.18 0.18 93 1005.6
20260830062103 11 207 19.3 25.7 0.00 0.18 0.18 93 1005.8